Location: Launois
(49.6535°N, 4.5395°E)
Time: 05:31:28
(UTC+00:00)

Cosmos 1441 Rocket - Pass Details

Date: 23 May 2024
Orbit: 467 x 502 km, 81.1° (Epoch: 19 June)

Event Time Altitude Azimuth Distance (km) Brightness Sun altitude
Rises 00:22:30 0° 339° (NNW) 2,530 7.7 -19.0°
Reaches altitude 10° 00:24:45 10° 329° (NNW) 1,643 6.4 -19.0°
Maximum altitude 00:27:57 31° 266° (W) 847 4.1 -18.9°
Enters shadow 00:28:07 31° 260° (W) 850 4.1 -18.9°
